Home   Weather   Glendale   Past weeks

Flag for USA Past Weather in Glendale, Arizona, USA — Yesterday and Last 2 Weeks

Now
74 °F

Clear.


Feels Like: 76 °F
Forecast: 64 / 86 °F
Wind: 14 mph from Southwest

Location: Phoenix-Deer Valley Municipal Airport

Current Time: Apr 25, 2017 at 2:10:46 am

Latest Report: Apr 25, 2017 at 12:53 am


Visibility: 10 mi

Pressure: 29.57 "Hg

Humidity: 21%

Dew Point: 32 °F

Location of GlendaleLocation

Past Weather in Glendale — Graph

°F

Glendale Temperature Yesterday

Maximum temperature yesterday: 87 °F (at 1:53 pm)
Minimum temperature yesterday: 67 °F (at 4:53 am)
Average temperature yesterday: 79 °F

High & Low Weather Summary for the Past Weeks

 TemperatureHumidityPressure
High95 °F (Apr 23, 4:53 pm)39% (Apr 14, 5:53 am)29.99 "Hg (Apr 14, 5:53 am)
Low50 °F (Apr 10, 4:53 am)4% (Apr 20, 4:53 pm)29.55 "Hg (Apr 24, 6:53 pm)
Average75 °F17%29.82 "Hg
* Reported Apr 9 11:53 pm — Apr 24 11:53 pm, Glendale, Weather by CustomWeather, © 2017

Note: Actual official high and low records may vary slightly from our data, if they occured in-between our weather recording intervals... More about our weather records

Advertising

Glendale Weather History for the Previous 24 Hours

Scroll right to see more
 ConditionsComfort  
Time TempWeatherWind HumidityBarometerVisibility
11:53 pm
Mon, Apr 24
76 °FClear.22 mph24%29.56 "Hg10 mi
10:53 pm77 °FClear.13 mph18%29.56 "Hg10 mi
9:53 pm77 °FClear.9 mph16%29.57 "Hg10 mi
8:53 pm79 °FClear.10 mph12%29.56 "Hg10 mi
7:53 pm81 °FClear.10 mph10%29.56 "Hg10 mi
6:53 pm83 °FSunny.17 mph9%29.55 "Hg10 mi
5:53 pm85 °FSunny.23 mph7%29.56 "Hg10 mi
4:53 pm86 °FSunny.18 mph7%29.59 "Hg10 mi
3:53 pm86 °FSunny.16 mph6%29.60 "Hg10 mi
2:53 pm86 °FSunny.13 mph8%29.62 "Hg10 mi
1:53 pm87 °FSunny.18 mph8%29.65 "Hg10 mi
12:53 pm86 °FSunny.21 mph9%29.66 "Hg10 mi
11:53 am85 °FSunny.21 mph8%29.69 "Hg10 mi
10:53 am83 °FSunny.9 mph9%29.70 "Hg10 mi
9:53 am82 °FSunny.9 mph12%29.70 "Hg10 mi
8:53 am78 °FSunny.3 mph13%29.70 "Hg10 mi
7:53 am75 °FSunny.6 mph15%29.69 "Hg10 mi
6:53 am71 °FSunny.8 mph18%29.67 "Hg10 mi
5:53 am69 °FSunny.5 mph17%29.65 "Hg10 mi
4:53 am67 °FClear.3 mph20%29.64 "Hg10 mi
3:53 am71 °FClear.3 mph16%29.65 "Hg10 mi
2:53 am71 °FClear.6 mph16%29.64 "Hg10 mi
Weather by CustomWeather, © 2017

See weather overviewHow to use our weather pages